Weather History for Pueblo, CO

Change the Weather History Date:

Monday, May 27, 2013

  Actual Average Record
Temperature  
Mean Temperature 73 °F 64 °F  
Max Temperature 89 °F 80 °F 95 °F (2006)
Min Temperature 56 °F 48 °F 34 °F (1997)
Degree Days  
Heating Degree Days 0 3  
Month to date heating degree days 191 162  
Since 1 July heating degree days 5704 5602  
Cooling Degree Days 8 2  
Month to date cooling degree days 63 22  
Year to date cooling degree days 64 24  
Growing Degree Days 23 (Base 50)    
Moisture  
Dew Point 23 °F    
Average Humidity 24    
Maximum Humidity 44    
Minimum Humidity 4    
Precipitation  
Precipitation 0.00 in 0.05 in 1.93 in (1902)
Month to date precipitation 0.73 1.32  
Year to date precipitation 1.93 4.30  
Snow  
Snow 0.00 in 0.00 in 0.00 in (2002)
Month to date snowfall 0.6 0.5  
Since 1 July snowfall 24.4 31.8  
Snow Depth 0.00 in    
Sea Level Pressure  
Sea Level Pressure 29.59 in    
Wind  
Wind Speed 9 mph (WNW)    
Max Wind Speed 23 mph    
Max Gust Speed 30 mph    
Visibility 10 miles    
Events      
T = Trace of Precipitation, MM = Missing Value Source: NWS Daily Summary

Daily Weather History Graph

Daily Weather History Graph

Search for Another Location

Airport:

Trip Planner

Search our weather history database for the weather conditions in past years. The results will help you decide how hot, cold, wet, or windy it might be!

Date:

Astronomy

May. 27, 2013 Rise Set
Actual Time 5:38 AM MDT 8:12 PM MDT
Civil Twilight 5:07 AM MDT 8:43 PM MDT
Nautical Twilight 4:29 AM MDT 9:21 PM MDT
Astronomical Twilight 3:47 AM MDT 10:04 PM MDT
Moon 10:54 PM MDT (5/27) 8:17 AM MDT (5/27)
Length of Visible Light 15h 35m
Length of Day
14h 33m
Waning Gibbous, 90% of the Moon is Illuminated
May 27
Waning Gibbous
May 31
Last Quarter
Jun 8
New
Jun 16
First Quarter
Jun 23
Full

Hourly Weather History & Observations

Time (MDT) Temp. Dew Point Humidity Pressure Visibility Wind Dir Wind Speed Gust Speed Precip Events Conditions
12:53 AM 66.0 °F 28.9 °F 25% 29.63 in 10.0 mi Calm Calm - N/A   Clear
1:53 AM 72.0 °F 43.0 °F 35% 29.61 in 10.0 mi NNW 15.0 mph - N/A   Clear
2:53 AM 64.0 °F 41.0 °F 43% 29.62 in 10.0 mi Calm Calm - N/A   Clear
3:53 AM 63.0 °F 39.9 °F 43% 29.62 in 10.0 mi WNW 3.5 mph - N/A   Clear
4:53 AM 62.1 °F 32.0 °F 32% 29.64 in 10.0 mi Calm Calm - N/A   Clear
5:53 AM 59.0 °F 34.0 °F 39% 29.67 in 10.0 mi SW 5.8 mph - N/A   Clear
6:53 AM 63.0 °F 27.0 °F 26% 29.68 in 10.0 mi West 8.1 mph - N/A   Clear
7:53 AM 66.9 °F 27.0 °F 22% 29.68 in 10.0 mi West 5.8 mph - N/A   Clear
8:53 AM 73.0 °F 24.1 °F 16% 29.67 in 10.0 mi SW 8.1 mph - N/A   Clear
9:53 AM 75.9 °F 24.1 °F 15% 29.67 in 10.0 mi Calm Calm - N/A   Clear
10:53 AM 84.9 °F 9.0 °F 6% 29.60 in 10.0 mi NW 16.1 mph 26.5 mph N/A   Clear
11:53 AM 86.0 °F 9.0 °F 5% 29.60 in 10.0 mi West 16.1 mph 21.9 mph N/A   Clear
12:53 PM 87.1 °F 10.0 °F 6% 29.59 in 10.0 mi SW 12.7 mph 21.9 mph N/A   Clear
1:53 PM 87.1 °F 8.1 °F 5% 29.55 in 10.0 mi WSW 9.2 mph 19.6 mph N/A   Clear
2:53 PM 84.9 °F 10.0 °F 6% 29.55 in 10.0 mi Variable 5.8 mph 17.3 mph N/A   Clear
3:53 PM 86.0 °F 7.0 °F 5% 29.52 in 10.0 mi Variable 5.8 mph - N/A   Clear
4:53 PM 86.0 °F 5.0 °F 5% 29.49 in 10.0 mi Variable 5.8 mph - N/A   Clear
5:53 PM 86.0 °F 6.1 °F 5% 29.48 in 10.0 mi Variable 5.8 mph - N/A   Clear
6:53 PM 84.9 °F 7.0 °F 5% 29.48 in 10.0 mi NNW 9.2 mph - N/A   Clear
7:53 PM 82.0 °F 12.9 °F 7% 29.48 in 10.0 mi NW 12.7 mph - N/A   Clear
8:53 PM 79.0 °F 17.1 °F 10% 29.51 in 10.0 mi NNW 15.0 mph - N/A   Clear
9:53 PM 75.0 °F 24.1 °F 15% 29.54 in 10.0 mi NNE 17.3 mph - N/A   Clear
10:53 PM 73.0 °F 46.0 °F 38% 29.56 in 10.0 mi South 6.9 mph - N/A   Clear
11:29 PM 71.6 °F 44.6 °F 38% 29.78 in 10.0 mi ENE 13.8 mph - N/A   Clear
11:53 PM 70.0 °F 46.0 °F 42% 29.59 in 10.0 mi ENE 9.2 mph - N/A   Clear